Dewpoint
57 56 55 55 57 54 54 54 51 49 48 52 53 54 54 54 53 54 54 50 48 48 48 50 51 52 52 53 54 55 56 57 57 57 58 58 59 59
56 55 55 55 56 57 55 55 55 53 50 50 52 54 55 54 53 54 54 51 48 46 46 46 48 49 49 50 51 52 53 54 54 55 55 56 57 57
56 56 55 56 56 56 56 56 56 55 53 52 53 53 54 54 53 54 53 53 53 47 46 46 45 45 46 47 48 48 50 50 51 52 53 54 55 56
55 55 55 55 55 56 55 55 55 54 53 53 53 54 55 55 56 55 52 51 53 50 47 46 46 45 45 45 45 45 46 47 48 49 50 51 53 54
55 55 55 55 55 56 56 55 55 54 55 54 53 54 54 55 54 55 55 56 53 50 47 46 46 46 46 45 45 45 45 45 45 45 46 47 48 49
56 57 56 56 56 56 55 55 54 54 54 53 53 52 53 54 55 55 55 56 55 53 51 49 48 48 46 46 45 45 45 45 45 44 44 43 43 45
56 56 57 55 50 53 55 56 56 55 54 54 53 53 53 53 53 54 53 53 55 55 54 55 55 55 53 46 48 45 44 44 44 44 44 42 41 41
55 56 56 50 50 45 45 46 51 54 53 53 52 51 51 51 52 52 51 51 50 54 53 53 42 39 39 40 39 40 40 40 40 39 38 38 37 37
55 54 54 54 50 54 48 43 43 42 43 50 51 52 51 50 48 51 51 52 50 38 39 36 35 32 34 35 36 37 36 36 36 36 35 35 35 34
48 42 43 44 39 40 44 49 45 34 35 37 35 34 33 34 37 39 39 34 34 33 33 33 32 30 32 33 34 34 34 34 34 34 34 34 34 34
35 34 34 35 34 35 39 40 32 31 33 33 32 31 31 30 31 37 35 35 34 30 29 32 30 29 29 28 31 32 32 32 32 31 31 31 31 32
32 31 32 33 33 34 37 38 33 31 32 30 28 28 28 28 28 29 30 32 30 26 27 28 29 31 28 30 30 30 30 29 29 29 30 30 31 31
28 28 29 30 30 30 30 30 30 28 27 26 26 26 26 26 26 27 27 27 25 23 27 31 28 29 28 28 27 27 27 26 27 27 27 27 27 26
28 28 28 28 27 27 28 26 26 26 25 24 24 23 24 24 26 25 25 25 24 23 24 28 26 26 26 26 24 23 25 24 23 20 21 19 18 17
27 25 25 25 25 25 24 24 25 26 26 25 25 24 24 24 26 26 25 21 19 18 16 17 18 19 19 19 17 16 14 14 15 12 14 15 15 16
24 24 23 22 22 23 24 25 24 25 24 24 23 22 21 21 20 19 18 21 16 12 8 10 12 15 15 12 12 13 10 8 6 8 11 14 15 17
24 25 24 23 22 22 21 20 21 21 21 21 21 19 16 14 12 14 13 14 13 11 10 7 6 7 7 8 13 6 6 5 5 9 9 12 15 16
22 22 21 21 20 19 18 17 16 14 15 15 16 14 12 11 10 11 11 11 10 6 5 5 8 7 4 5 8 5 5 6 7 7 8 11 11 15
19 18 18 18 17 15 14 13 12 12 11 11 12 12 12 11 11 9 10 10 8 5 3 3 6 8 7 7 4 5 7 7 9 10 10 11 13 14
15 15 15 14 12 10 10 9 9 10 10 9 10 11 12 11 10 8 8 9 7 4 2 0 2 3 6 7 8 9 8 9 10 10 11 11 13 14
10 10 11 11 10 9 10 9 9 8 8 9 8 8 10 8 7 7 7 5 5 3 1 0 0 5 6 8 9 9 10 8 8 9 11 12 12 12
8 7 7 8 8 8 9 9 8 7 6 6 7 7 8 8 7 6 6 6 4 4 1 1 0 1 3 3 4 7 7 10 9 9 10 10 12 11
7 6 6 7 7 6 5 5 3 4 2 2 3 3 5 5 4 5 5 4 3 2 1 2 1 0 1 2 3 6 6 6 7 10 11 11 12 15
Lifted_Index
4 4 4 4 4 3 3 3 3 3 3 3 3 3 2 2 2 3 3 3 2 2 2 2 3 3 3 3 3 3 3 3 3 2 2 2 1 1
4 4 4 3 3 3 3 3 3 3 3 3 3 3 3 2 3 3 3 3 3 3 2 2 3 2 2 3 3 3 3 3 3 2 2 2 2 2
4 4 4 3 3 3 3 3 3 3 3 3 3 3 2 2 3 3 3 3 3 3 3 3 3 2 2 3 3 3 3 3 2 2 2 2 2 2
4 4 4 4 3 3 3 3 3 4 3 3 3 2 2 2 2 2 3 3 3 3 3 3 3 3 3 3 3 3 2 2 2 2 2 2 2 2
3 3 3 3 3 3 3 3 3 3 3 3 3 3 2 2 2 2 2 2 2 2 3 3 3 3 3 3 3 2 2 2 2 2 2 2 2 2
3 2 2 2 2 2 2 3 3 3 3 3 3 3 3 2 2 2 2 2 2 2 2 2 2 3 3 3 3 2 2 2 2 2 2 2 2 2
2 2 2 2 2 2 2 2 2 2 3 3 3 3 3 2 2 2 2 2 2 2 2 2 2 2 3 3 2 2 2 2 2 2 2 2 3 3
2 2 2 2 2 2 2 2 2 2 2 2 2 2 2 2 2 2 2 2 2 2 2 2 3 3 3 3 3 3 3 3 3 4 4 5 5 6
2 2 2 2 2 1 1 1 1 1 1 1 2 2 2 3 3 3 2 3 3 4 4 3 4 4 5 6 7 7 7 7 8 8 9 10 10 11
1 1 1 1 1 1 1 0 1 1 2 2 3 3 3 4 4 3 4 4 4 5 6 6 6 7 9 11 12 13 13 13 14 14 15 15 15 15
0 0 1 1 1 1 1 1 1 2 3 4 5 5 6 6 6 6 6 6 6 7 8 8 9 10 12 14 16 17 17 18 18 18 18 18 18 18
1 1 1 1 2 2 2 2 2 4 5 6 7 8 9 10 10 10 10 9 8 9 11 12 12 13 14 16 18 19 19 20 20 20 20 20 20 20
2 3 4 4 5 5 5 5 6 7 8 8 9 10 12 13 14 14 14 14 13 13 15 15 15 15 15 16 18 19 19 20 20 20 20 21 21 21
5 7 8 9 10 10 10 10 10 11 11 11 11 12 13 15 16 17 17 17 17 17 18 18 17 17 17 16 17 18 19 20 21 21 21 22 22 23
10 11 12 13 13 14 14 14 14 14 13 13 13 14 15 16 17 18 18 18 18 19 20 20 20 19 19 18 18 19 20 21 22 23 23 23 24 24
14 14 15 15 15 15 15 16 16 15 15 15 15 16 17 17 18 18 18 18 18 19 21 22 22 22 21 20 20 20 21 22 23 24 23 23 24 24
15 15 15 15 15 15 16 16 17 17 17 16 16 17 17 17 18 19 19 18 18 19 20 22 23 23 22 22 22 22 22 22 23 23 23 23 23 23
16 15 15 15 15 16 16 16 17 18 18 18 18 18 18 18 19 19 20 19 19 19 20 21 21 21 21 21 22 22 22 22 22 22 22 22 22 22
16 16 16 16 16 17 17 18 18 20 21 21 20 20 20 20 20 20 20 20 20 20 20 21 21 20 19 19 21 23 23 22 22 22 22 21 21 21
17 17 17 18 18 19 20 20 21 22 22 22 22 22 22 22 21 21 21 21 21 21 21 21 21 21 20 19 20 22 23 23 22 21 21 21 20 20
19 19 20 21 21 22 22 23 23 23 23 23 23 23 23 23 22 22 22 21 21 21 21 21 22 22 22 21 20 20 21 22 22 21 20 20 18 17
22 22 23 23 24 24 24 24 24 24 24 23 23 23 23 23 22 22 22 21 21 21 21 21 22 23 22 21 19 19 19 19 19 19 18 18 17 16
23 24 24 24 25 25 25 24 24 24 24 23 23 23 23 22 22 22 22 21 21 21 21 22 22 22 21 20 19 18 17 17 16 16 16 17 16 15